This demonstration page uses our WeatherBlox Daily Observations layout. Learn more.

Left ArrowRight Arrow

Hourly Observations for April 9, 2018

Temp ( °F °C ) Dew Point ( °F °C ) Humidity (%) Winds ( mph kmh ) Pressure ( in mb ) Visibility ( mi km ) Precip ( " mm )
12:53 am 00:53 Cloudy 40 4.4 17 -8.3 40 40 NNE 5 7 30.06 1018 10 16 0.00 0.00
1:53 am 01:53 Cloudy 39 3.9 21 -6.1 48 48 Calm 30.10 1019 10 16 0.00 0.00
2:53 am 02:53 Cloudy 37 2.8 25 -3.9 62 62 S 8 13 30.11 1020 10 16 0.00 0.00
3:06 am 03:06 Cloudy with Light Snow 34 1.1 29 -1.7 82 82 VRB 5 7 30.15 1021 3 4 0.00 0.03
3:13 am 03:13 Cloudy with Light Snow 34 1.1 30 -1.1 85 85 S 3 6 30.15 1021 2 2 0.00 0.03
3:37 am 03:37 Cloudy with Light Snow 33 0.6 31 -0.6 92 92 E 5 7 30.12 1020 2 2 0.00 0.03
3:53 am 03:53 Cloudy with Light Snow 33 0.6 31 -0.6 92 92 ENE 3 6 30.11 1020 2 3 0.00 0.03
4:06 am 04:06 Cloudy with Light Snow 33 0.6 31 -0.6 92 92 E 5 7 30.12 1020 2 3 0.00 0.03
4:13 am 04:13 Cloudy with Light Snow 33 0.6 31 -0.6 92 92 ENE 3 6 30.12 1020 2 3 0.00 0.03
4:21 am 04:21 Cloudy with Light Snow 33 0.6 31 -0.6 92 92 ENE 6 9 30.12 1020 2 3 0.00 0.03
4:32 am 04:32 Cloudy with Light Snow 33 0.6 31 -0.6 92 92 E 5 7 30.12 1020 2 2 0.00 0.03
4:41 am 04:41 Cloudy with Light Snow 33 0.6 31 -0.6 92 92 ENE 7 11 30.12 1020 2 3 0.00 0.03
4:53 am 04:53 Cloudy with Light Snow 33 0.6 31 -0.6 92 92 ENE 5 7 30.09 1019 2 3 0.00 0.03
5:03 am 05:03 Cloudy with Light Snow 33 0.6 31 -0.6 92 92 ENE 6 9 30.12 1020 2 3 0.00 0.03
5:16 am 05:16 Cloudy with Light Snow 33 0.6 31 -0.6 92 92 ENE 5 7 30.12 1020 3 5 0.00 0.03
5:28 am 05:28 Cloudy with Light Snow 33 0.6 31 -0.6 92 92 E 7 11 30.12 1020 3 5 0.00 0.03
5:35 am 05:35 Cloudy with Light Snow 33 0.6 31 -0.6 92 92 E 5 7 30.12 1020 3 5 0.00 0.03
5:53 am 05:53 Cloudy with Light Snow 33 0.6 31 -0.6 92 92 E 8 13 30.07 1018 3 5 0.00 0.03
6:02 am 06:02 Cloudy with Light Snow 33 0.6 30 -1.1 89 89 E 6 9 30.12 1020 4 6 0.00 0.03
6:53 am 06:53 Cloudy with Light Snow 33 0.6 31 -0.6 92 92 E 3 6 30.08 1019 6 10 0.00 0.03
7:04 am 07:04 Cloudy 33 0.6 31 -0.6 92 92 E 5 7 30.12 1020 8 13 0.00 0.03
7:53 am 07:53 Cloudy 34 1.1 30 -1.1 85 85 E 5 7 30.09 1019 10 16 0.00 0.03
8:02 am 08:02 Cloudy 34 1.1 30 -1.1 85 85 E 5 7 30.12 1020 10 16 0.00 0.00
8:13 am 08:13 Cloudy 34 1.1 30 -1.1 85 85 ESE 7 11 30.12 1020 10 16 0.00 0.00
8:38 am 08:38 Cloudy 34 1.1 30 -1.1 85 85 E 6 9 30.12 1020 10 16 0.00 0.00
8:50 am 08:50 Cloudy 34 1 30 -1 87 87 E 6 9 30.12 1020 10 16 0.00 0.00
8:53 am 08:53 Cloudy 34 1.1 31 -0.6 89 89 E 6 9 30.10 1019 10 16 0.00 0.00
9:33 am 09:33 Cloudy 35 1.7 30 -1.1 82 82 ESE 6 9 30.15 1021 10 16 0.00 0.00
9:53 am 09:53 Cloudy 36 2.2 30 -1.1 79 79 SSE 5 7 30.13 1020 10 16 0.00 0.00
10:53 am 10:53 Cloudy 36 2.2 30 -1.1 79 79 VRB 3 6 30.15 1021 10 16 0.00 0.00
11:53 am 11:53 Cloudy 37 2.8 30 -1.1 76 76 Calm 30.15 1021 10 16 0.00 0.00
12:08 pm 12:08 Cloudy 37 2.8 31 -0.6 79 79 Calm 30.12 1020 10 16 0.00 0.00
12:20 pm 12:20 Cloudy 37 2.8 31 -0.6 79 79 Calm 30.12 1020 10 16 0.00 0.00
12:53 pm 12:53 Cloudy 37 2.8 31 -0.6 79 79 VRB 3 6 30.15 1021 9 14 0.00 0.00
1:53 pm 13:53 Cloudy 38 3.3 31 -0.6 76 76 WNW 6 9 30.15 1021 10 16 0.00 0.00
2:53 pm 14:53 Cloudy 41 5 31 -0.6 67 67 W 8 13 30.15 1021 10 16 0.00 0.00
3:14 pm 15:14 Cloudy 43 6.1 31 -0.6 63 63 WNW 10 17 30.15 1021 10 16 0.00 0.00
3:53 pm 15:53 Cloudy 42 5.6 31 -0.6 65 65 NNW 8 13 30.15 1021 10 16 0.00 0.00
4:53 pm 16:53 Cloudy 41 5 31 -0.6 67 67 N 6 9 30.16 1022 10 16 0.00 0.00
5:05 pm 17:05 Cloudy 41 5 31 -0.6 67 67 N 6 9 30.15 1021 10 16 0.00 0.00
5:35 pm 17:35 Cloudy 42 5.6 30 -1.1 62 62 NW 9 15 30.18 1022 10 16 0.00 0.00
5:53 pm 17:53 Cloudy 41 5 30 -1.1 65 65 WNW 8 13 30.18 1022 10 16 0.00 0.00
6:33 pm 18:33 Cloudy 41 5 31 -0.6 67 67 N 7 11 30.18 1022 10 16 0.00 0.00
6:53 pm 18:53 Cloudy 41 5 31 -0.6 67 67 NNE 6 9 30.19 1022 10 16 0.00 0.00
7:53 pm 19:53 Cloudy 40 4.4 29 -1.7 65 65 N 5 7 30.20 1023 10 16 0.00 0.00
8:53 pm 20:53 Cloudy 40 4.4 30 -1.1 68 68 Calm 30.22 1023 10 16 0.00 0.00
9:53 pm 21:53 Cloudy 38 3.3 32 0 79 79 Calm 30.25 1024 10 16 0.00 0.00
10:53 pm 22:53 Cloudy 39 3.9 32 0 76 76 Calm 30.26 1025 10 16 0.00 0.00
11:53 pm 23:53 Cloudy 39 3.9 32 0 76 76 Calm 30.26 1025 10 16 0.00 0.00

Powered by AerisWeather